Terug naar catalogus

DELTA 1 DEB

ActiefPO
NORAD 21386·DEBRIS·🇺🇸 United States

Gelanceerd Jun 12, 1975 vanaf Vandenberg Space Force Base

Loading…

Volgende Passages (komende 24 uur)

TLE

VersSource: Space-Track

Epoch: Sep 14, 2026, 14:15 UTC

1 21386U 75052DG  26257.59380252  .00000231  00000-0  53726-3 0  9997
2 21386  99.5593 296.9861 0179211   1.8556 151.7054 13.29353098704714

Volg DELTA 1 DEB in realtime met AllMySat

Download on the App Store